VA5EVR-13 Weather Reports


Display with metric or nautical units.
time (UTC)temp
F
wind
direction
speed
MPH
gust
MPH
rain 1hr
in
rain 24hr
in
rain mn
in
humidity
%
barometer
mb
20260505235012 44 22 12.0 12.0 0.00 0.00 0.00 32 88.8
20260505234011 44 22 14.0 14.0 0.00 0.00 0.00 32 88.8
20260505233012 44 22 16.0 16.0 0.00 0.00 0.00 31 88.8
20260505232012 44 22 14.0 14.0 0.00 0.00 0.00 30 88.8
20260505231011 44 22 19.0 19.0 0.00 0.00 0.00 32 88.8
20260505230012 44 22 17.0 17.0 0.00 0.00 0.00 33 88.8
20260505225012 44 22 21.0 21.0 0.00 0.00 0.00 33 88.8
20260505224012 44 22 19.0 19.0 0.00 0.00 0.00 34 88.8
20260505223012 44 22 22.0 22.0 0.00 0.00 0.00 33 88.8
20260505222012 44 338 16.0 16.0 0.00 0.00 0.00 33 88.8
20260505221011 44 22 24.0 24.0 0.00 0.00 0.00 33 88.8
20260505220012 44 45 20.0 20.0 0.00 0.00 0.00 33 88.8
20260505215012 44 338 21.0 21.0 0.00 0.00 0.00 33 88.8
20260505214011 44 22 29.0 29.0 0.00 0.00 0.00 33 88.8
20260505213012 44 0 17.0 17.0 0.00 0.00 0.00 34 88.8
20260505212012 44 0 16.0 16.0 0.00 0.00 0.00 34 88.8
20260505211011 44 22 18.0 18.0 0.00 0.00 0.00 34 88.8
20260505210011 44 315 11.0 11.0 0.00 0.00 0.00 33 88.8
20260505205012 44 338 14.0 14.0 0.00 0.00 0.00 34 88.8
20260505204011 44 292 14.0 14.0 0.00 0.00 0.00 34 88.8
20260505203011 43 0 19.0 19.0 0.00 0.00 0.00 32 88.8
20260505202012 43 22 13.0 13.0 0.00 0.00 0.00 35 88.8
20260505201012 43 292 11.0 11.0 0.00 0.00 0.00 35 88.8
20260505200012 43 45 12.0 12.0 0.00 0.00 0.00 37 88.8
20260505195012 43 22 18.0 18.0 0.00 0.00 0.00 37 88.8
20260505194011 42 0 16.0 16.0 0.00 0.00 0.00 38 88.8
20260505193011 42 315 12.0 12.0 0.00 0.00 0.00 36 88.8
20260505192012 42 0 17.0 17.0 0.00 0.00 0.00 36 88.8
20260505191012 42 22 22.0 22.0 0.00 0.00 0.00 34 88.8
20260505190012 42 0 20.0 20.0 0.00 0.00 0.00 36 88.8
20260505185012 42 315 14.0 14.0 0.00 0.00 0.00 36 88.8
20260505184012 41 292 17.0 17.0 0.00 0.00 0.00 37 88.8
20260505183012 41 0 11.0 11.0 0.00 0.00 0.00 36 88.8
20260505182012 40 338 20.0 20.0 0.00 0.00 0.00 39 88.8
20260505181012 40 22 19.0 19.0 0.00 0.00 0.00 40 88.8
20260505180011 40 338 19.0 19.0 0.00 0.00 0.00 42 88.8
20260505175011 40 22 23.0 23.0 0.00 0.00 0.00 40 88.8
20260505174012 40 338 19.0 19.0 0.00 0.00 0.00 43 88.8
20260505173011 39 292 21.0 21.0 0.00 0.00 0.00 47 88.8
20260505172012 39 338 15.0 15.0 0.00 0.00 0.00 51 88.8
20260505171012 38 0 15.0 15.0 0.00 0.00 0.00 50 88.8
20260505170012 38 0 19.0 19.0 0.00 0.00 0.00 51 88.8
20260505165012 38 0 14.0 14.0 0.00 0.00 0.00 50 88.8
20260505164012 37 315 18.0 18.0 0.00 0.00 0.00 51 88.8
20260505163012 36 338 12.0 12.0 0.00 0.00 0.00 52 88.8
20260505162011 36 0 14.0 14.0 0.00 0.00 0.00 53 88.8
20260505161012 36 338 19.0 19.0 0.00 0.00 0.00 52 88.8
20260505153011 36 338 19.0 19.0 0.00 0.00 0.00 56 88.8
20260505152011 36 315 16.0 16.0 0.00 0.00 0.00 57 88.8
20260505151012 37 22 16.0 16.0 0.00 0.00 0.00 60 88.8
20260505125012 24 0 10.0 10.0 0.00 0.00 0.00 93 88.8
20260505124012 24 338 9.0 9.0 0.00 0.00 0.00 94 88.8
20260505123011 24 315 7.0 7.0 0.00 0.00 0.00 96 88.8
20260505122012 24 292 9.0 9.0 0.00 0.00 0.00 96 88.8
20260505121012 24 338 8.0 8.0 0.00 0.00 0.00 97 88.8
20260505120012 24 315 8.0 8.0 0.00 0.00 0.00 98 88.8
20260505115012 24 0 7.0 7.0 0.00 0.00 0.00 99 88.8
20260505114011 24 315 7.0 7.0 0.00 0.00 0.00 99 88.8
20260505113011 24 338 8.0 8.0 0.00 0.00 0.00 99 88.8
20260505112012 24 315 8.0 8.0 0.00 0.00 0.00 99 88.8
20260505111012 24 338 7.0 7.0 0.00 0.00 0.00 99 88.8
20260505102012 24 338 8.0 8.0 0.00 0.00 0.00 96 88.8
20260505101012 24 292 7.0 7.0 0.00 0.00 0.00 96 88.8
20260505100011 24 292 6.0 6.0 0.00 0.00 0.00 95 88.8
20260505095012 24 338 7.0 7.0 0.00 0.00 0.00 94 88.8
20260505094011 24 292 6.0 6.0 0.00 0.00 0.00 93 88.8
20260505093012 24 292 7.0 7.0 0.00 0.00 0.00 92 88.8
20260505092013 24 338 8.0 8.0 0.00 0.00 0.00 91 88.8
20260505091012 24 338 7.0 7.0 0.00 0.00 0.00 89 88.8
20260505085012 24 22 7.0 7.0 0.00 0.00 0.00 88 88.8
20260505084012 24 315 6.0 6.0 0.00 0.00 0.00 88 88.8
20260505083011 24 292 7.0 7.0 0.00 0.00 0.00 87 88.8
20260505082012 24 338 5.0 5.0 0.00 0.00 0.00 87 88.8
20260505081012 24 22 5.0 5.0 0.00 0.00 0.00 86 88.8
20260505080011 24 292 7.0 7.0 0.00 0.00 0.00 85 88.8
20260505075012 25 315 7.0 7.0 0.00 0.00 0.00 84 88.8
20260505074011 25 338 5.0 5.0 0.00 0.00 0.00 83 88.8
20260505073011 25 338 9.0 9.0 0.00 0.00 0.00 82 88.8
20260505072012 26 292 6.0 6.0 0.00 0.00 0.00 81 88.8
20260505071011 27 338 8.0 8.0 0.00 0.00 0.00 80 88.8
20260505070013 28 315 8.0 8.0 0.00 0.00 0.00 79 88.8
20260505065011 28 338 9.0 9.0 0.00 0.00 0.00 78 88.8
20260505064012 28 0 7.0 7.0 0.00 0.00 0.00 77 88.8
20260505063013 29 22 9.0 9.0 0.00 0.00 0.00 76 88.8
20260505062012 30 0 11.0 11.0 0.00 0.00 0.00 73 88.8
20260505061011 32 22 11.0 11.0 0.00 0.00 0.00 71 88.8
20260505060013 33 22 16.0 16.0 0.00 0.00 0.00 70 88.8
20260505055011 33 22 14.0 14.0 0.00 0.00 0.00 69 88.8
20260505052011 34 22 14.0 14.0 0.00 0.00 0.00 70 88.8
20260505051012 34 22 18.0 18.0 0.00 0.00 0.00 70 88.8
20260505041012 35 0 13.0 13.0 0.00 0.00 0.00 70 88.8
20260505040011 35 45 13.0 13.0 0.00 0.00 0.00 71 88.8
20260505035011 35 0 13.0 13.0 0.00 0.00 0.00 72 88.8
20260505034012 35 0 16.0 16.0 0.00 0.00 0.00 71 88.8
20260505033013 36 22 10.0 10.0 0.00 0.00 0.00 70 88.8
20260505032011 36 0 18.0 18.0 0.00 0.00 0.00 69 88.8
20260505031012 36 22 14.0 14.0 0.00 0.00 0.00 69 88.8
20260505030012 36 0 16.0 16.0 0.00 0.00 0.00 70 88.8
20260505025013 36 0 11.0 11.0 0.00 0.00 0.00 71 88.8
20260505024011 36 338 11.0 11.0 0.00 0.00 0.00 70 88.8
20260505023012 36 0 16.0 16.0 0.00 0.00 0.00 70 88.8
20260505022012 36 338 17.0 17.0 0.00 0.00 0.00 70 88.8
20260505021012 36 0 18.0 18.0 0.00 0.00 0.00 70 88.8
20260505020011 36 0 17.0 17.0 0.00 0.00 0.00 69 88.8
20260505015012 36 315 14.0 14.0 0.00 0.00 0.00 69 88.8
20260505014011 36 0 16.0 16.0 0.00 0.00 0.00 69 88.8
20260505013012 37 0 19.0 19.0 0.00 0.00 0.00 69 88.8
20260505012012 37 0 20.0 20.0 0.00 0.00 0.00 68 88.8
20260505011012 37 22 19.0 19.0 0.00 0.00 0.00 68 88.8
20260505010011 37 338 16.0 16.0 0.00 0.00 0.00 68 88.8
20260505005011 37 338 19.0 19.0 0.00 0.00 0.00 68 88.8
20260505004011 38 22 11.0 11.0 0.00 0.00 0.00 68 88.8
20260505003011 38 338 19.0 19.0 0.00 0.00 0.00 67 88.8
20260505002012 38 338 14.0 14.0 0.00 0.00 0.00 67 88.8
20260505001012 38 0 21.0 21.0 0.00 0.00 0.00 67 88.8
20260505000012 38 0 21.0 21.0 0.00 0.00 0.00 67 88.8